Location: Colossi of Memnon
(25.7167°N, 32.6167°E)
Time: 21:24:16
(UTC+00:00)

GPS 2-04 Rocket1 - Pass Details

Date: 05 March 2021
Orbit: 416 x 541 km, 35.6° (Epoch: 20 April)

Event Time Altitude Azimuth Distance (km) Brightness Sun altitude
Exits shadow 03:07:20 18° 316° (NW) 1,248 4.2 -14.7°
Maximum altitude 03:08:51 22° 349° (N) 1,090 4.2 -14.3°
Drops below altitude 10° 03:11:57 10° 43° (NE) 1,695 5.9 -13.6°
Sets 03:14:35 0° 58° (ENE) 2,605 7.3 -13.0°
